STARLINK-1559 (46077 NORAD) Tracking and Keplerian Element Data

This shows tracking and keplerian element data for the satellite.

Feedback or suggestion? Click here.




ElementValue
Catalog46077
NameSTARLINK-1559
Epoch Orbit1864
Epoch Day335.73697148
Epoch Year2020
RAAN98.0581
Inclination53.0046
Eccentricity0.0001006
Argument of Perigee100.9294
Mean Anonmoly259.1808
Mean Motion15.05589667
Decay Rate7.08E-06
L11 46077U 20055BC 20335.73697148 .00000708 00000-0 67731-4 0 9997
L22 46077 53.0046 98.0581 0001006 100.9294 259.1808 15.05589667 18641

Live tracking and technical data element details for STARLINK-1559 (NORAD 46077). STARLINK-1559 can be tracked NOW for your location showing map with azimuth and elevation plus other details from your city location.

Track the satellite on the map from your city or location and see movement details for azimuth, elevation, latitude, longitude, range, height, and movement on the map or in text.







IsCatalogInMostPopularTable: catalog: 46077, numindb: 24
Update: records affected: 1



GetName: 46077 STARLINK-1559

Hit Count: updated at: Wed, 02 Dec 2020 05:41:56 GMT